Location: Unspecified
(0.0000°N, 0.0000°E)
Time: 17:32:29
(UTC+00:00)

Vanguard 1 Rocket - Pass Details

Date: 12 December 2017
Orbit: 653 x 4224 km, 34.3° (Epoch: 19 June)

Event Time Altitude Azimuth Distance (km) Brightness Sun altitude
Rises 11:42:46 0° 203° (SSW) 3,016 10.4 66.7°
Reaches altitude 10° 11:46:08 10° 176° (S) 2,052 9.8 66.8°
Maximum altitude 11:48:31 14° 143° (SE) 1,847 9.5 66.9°
Drops below altitude 10° 11:51:04 10° 110° (ESE) 2,240 9.7 66.9°
Sets 11:55:03 0° 85° (E) 3,514 10.4 66.9°
